{"data":{"norad_id":81329,"epoch":"2026-05-23T04:55:33.445344Z","epoch_age_seconds":229838,"freshness":"STALE","line1":"1 81329U          26143.20524821  .00001554  00000+0  54917-3 0  9996","line2":"2 81329  65.8182 120.5104 0840194 316.9346  36.8792 13.22926276599431","mean_motion":13.22926276,"eccentricity":0.0840194,"inclination_deg":65.8182,"raan_deg":120.5104,"arg_perigee_deg":316.9346,"mean_anomaly_deg":36.8792,"bstar":0.00054917,"rev_number":59943,"period_min":108.8496030447,"perigee_km":539.07397627281,"apogee_km":1808.0526334624,"semimajor_km":7551.7003048676,"source":"CELESTRAK","updated_at":"2026-05-25T13:38:09.449399Z"}}